PROBA-1 1 26958U 01049B 26118.81545948 .00001532 00000+0 10291-3 0 9992 2 26958 97.9620 125.6278 0053723 290.5962 68.9506 15.07309044336187 CUTE-1 (CO-55) 1 27844U 03031E 26118.58205231 .00000335 00000+0 16415-3 0 9996 2 27844 98.6755 127.7628 0008975 336.7316 23.3456 14.24304052184616 CUBESAT XI-IV (CO-57) 1 27848U 03031J 26118.47542356 .00000276 00000+0 14017-3 0 9990 2 27848 98.6788 127.4103 0009274 356.1304 3.9802 14.23593384184309 APRIZESAT 4 1 35684U 09041D 26118.76095170 .00000945 00000+0 11905-3 0 9999 2 35684 98.1422 193.0969 0044547 121.1354 239.4240 14.83803532904039 APRIZESAT 3 1 35686U 09041F 26118.40765312 .00001692 00000+0 15107-3 0 9992 2 35686 98.1993 269.2711 0061021 230.7930 128.7863 14.96065677908936 PROBA-2 1 36037U 09059B 26118.65295944 .00000227 00000+0 63488-4 0 9997 2 36037 98.2450 302.6933 0014529 75.5122 284.7686 14.54840837874327 APRIZESAT 5 1 37792U 11044E 26118.75471000 .00000954 00000+0 12778-3 0 9995 2 37792 98.2439 50.4049 0052682 160.4959 199.8284 14.80974594791474 APRIZESAT 6 1 37793U 11044F 26118.75739080 .00000754 00000+0 11381-3 0 9998 2 37793 98.2391 28.2435 0041909 243.4446 183.8043 14.76847825789853 PROBA-V 1 39159U 13021A 26118.84934838 .00000078 00000+0 52356-4 0 9998 2 39159 98.3561 99.8999 0002962 281.6715 78.4132 14.23586221674098 APRIZESAT 7 1 39416U 13066A 26118.84449749 .00001598 00000+0 16360-3 0 9997 2 39416 97.7673 72.7889 0036417 17.3480 342.8974 14.91442480673874 APRIZESAT 8 1 39425U 13066K 26118.83725891 .00001215 00000+0 13727-3 0 9991 2 39425 97.8188 67.0091 0047551 88.3514 272.3148 14.87542853672335 BUGSAT-1 (TITA) 1 40014U 14033E 26118.84080819 .00005693 00000+0 30524-3 0 9995 2 40014 98.0408 208.5294 0027937 352.2283 7.8510 15.15085153648365 SAUDISAT 4 1 40016U 14033G 26118.68010791 .00000850 00000+0 11895-3 0 9991 2 40016 97.7513 266.5477 0043705 233.3776 126.3413 14.79469577638750 APRIZESAT 9 1 40018U 14033J 26118.86232468 .00000553 00000+0 88740-4 0 9994 2 40018 97.8983 253.2875 0066123 0.1242 359.9972 14.74157822636299 APRIZESAT 10 1 40019U 14033K 26118.80636214 .00000619 00000+0 10442-3 0 9992 2 40019 97.9573 246.8896 0080143 71.8713 289.1201 14.70837307634996 TECHDEMOSAT-1 (TDS-1) 1 40076U 14037H 26118.68616840 .00008936 00000+0 51695-3 0 9993 2 40076 98.3806 106.0303 0008288 79.9575 280.2588 15.12503349640741 TECHNOSAT 1 42829U 17042E 26118.70972008 .00003744 00000+0 26982-3 0 9997 2 42829 97.4234 278.2773 0016181 261.8014 98.1377 15.04653246479260 FLYING LAPTOP 1 42831U 17042G 26118.85330542 .00003780 00000+0 30102-3 0 9996 2 42831 97.4463 276.3625 0017963 293.2972 66.6362 15.00829851479057 HAWK-A 1 43765U 18099H 26118.72059295 .00007421 00000+0 30348-3 0 9993 2 43765 97.3962 171.6144 0037057 99.7154 260.8272 15.23994921405566 HAWK-B 1 43794U 18099AN 26118.74951485 .00007416 00000+0 32056-3 0 9991 2 43794 97.4011 171.1596 0034095 116.2260 244.2487 15.22222881405519 HAWK-C 1 43799U 18099AT 26118.67600672 .00009290 00000+0 34059-3 0 9994 2 43799 97.3937 172.2438 0042910 100.7685 259.8389 15.27320224406352 SALSAT 1 46495U 20068K 26118.42175207 .00008242 00000+0 29456-3 0 9994 2 46495 97.8859 118.4866 0011633 113.9464 246.2994 15.29049342307759 HAWK-2C 1 47502U 21006CT 26118.58776867 .00006650 00000+0 20397-3 0 9999 2 47502 97.2326 163.8980 0007478 33.0617 327.1092 15.34058341291897 HAWK-2A 1 47505U 21006CW 26118.59070409 .00006643 00000+0 20370-3 0 9995 2 47505 97.2371 164.5496 0007184 37.3623 322.8119 15.34070502291893 HAWK-2B 1 47508U 21006CZ 26118.84868442 .00007423 00000+0 22723-3 0 9999 2 47508 97.2242 163.2152 0007611 33.3783 326.7938 15.34082914291933 HAWK-3B 1 48931U 21059BE 26118.78645310 .00037221 00000+0 37010-3 0 9992 2 48931 97.6700 310.9735 0006095 144.7677 215.3986 15.65631671270116 HAWK-3C 1 48948U 21059BX 26118.01915078 .00044445 00000+0 44250-3 0 9997 2 48948 97.6833 315.7342 0006524 146.8489 213.3180 15.65561124269992 HAWK-3A 1 48957U 21059CG 26118.78600741 .00038744 00000+0 38519-3 0 9995 2 48957 97.6773 313.8161 0006188 144.6269 215.5402 15.65626962270110 HAWK-5C 1 52754U 22057Y 26118.67189986 .00019074 00000+0 34671-3 0 9995 2 52754 97.6522 275.2436 0003819 235.7271 124.3618 15.49585210218672 HAWK-5B 1 52756U 22057AA 26118.67176686 .00019221 00000+0 34930-3 0 9992 2 52756 97.6529 273.5866 0004040 231.4063 128.6826 15.49590271218679 HAWK-5A 1 52757U 22057AB 26118.67152530 .00018992 00000+0 34521-3 0 9995 2 52757 97.6528 274.4201 0004266 233.9010 126.1845 15.49585922218672 HAWK-6B 1 55324U 23011A 26118.79681128 .00005235 00000+0 22951-3 0 9992 2 55324 40.4993 280.0503 0002252 14.2754 345.8118 15.22480852180312 HAWK-6C 1 55326U 23011C 26118.79617718 .00005296 00000+0 23205-3 0 9998 2 55326 40.4981 276.8983 0002969 1.8816 358.2004 15.22484345180326 HAWK-6A 1 55327U 23011D 26118.86180794 .00005350 00000+0 23431-3 0 9998 2 55327 40.4991 278.1354 0002676 357.4764 2.6031 15.22484010180332 HAWK-7A 1 56191U 23054P 26118.63792132 .00006111 00000+0 23447-3 0 9998 2 56191 97.2770 7.2374 0002505 171.2806 188.8478 15.26830991169460 HAWK-7B 1 56193U 23054R 26118.63785443 .00006058 00000+0 23247-3 0 9995 2 56193 97.2797 5.4833 0001648 166.5294 193.5990 15.26831314169468 HAWK-7C 1 56200U 23054Y 26118.63774755 .00005991 00000+0 22994-3 0 9991 2 56200 97.2772 6.2676 0002166 160.6021 199.5300 15.26831656169463